Location: Unspecified
(0.0000°N, 0.0000°E)
Time: 01:47:59
(UTC+00:00)

Envisat - Pass Details

Date: 22 March 2018
Orbit: 764 x 766 km, 98.2° (Epoch: 17 June)

Event Time Altitude Azimuth Distance (km) Brightness Sun altitude
Exits shadow 20:53:38 14° 294° (WNW) 2,026 5.7 -41.7°
Drops below altitude 10° 20:54:41 10° 304° (NW) 2,292 5.9 -42.0°
Sets 20:57:32 0° 321° (NW) 3,215 6.7 -42.7°
